Aswan, Egypt

11:10 AM EET on May 27, 2018 (GMT +0200)
Aswan

Weather History for HESN - April, 2014

Change the Weather History Date:

Monday, April 7, 2014

  Actual Average Record
Temperature  
Mean Temperature 84 °F -  
Max Temperature 99 °F 94 °F 109 °F (2003)
Min Temperature 69 °F 69 °F 59 °F (2001)
Cooling Degree Days 19    
Growing Degree Days 34 (Base 50)    
Moisture  
Dew Point 17 °F    
Average Humidity 8    
Maximum Humidity 16    
Minimum Humidity 4    
Precipitation  
Precipitation 0.00 in 0.00 in - ()
Sea Level Pressure  
Sea Level Pressure 29.88 in    
Wind  
Wind Speed 5 mph ()    
Max Wind Speed 9 mph    
Max Gust Speed -    
Visibility 6.0 miles    
Events      
Averages and records for this station are not official NWS values.
T = Trace of Precipitation, MM = Missing Value Source: Averaged Metar Reports

Daily Weather History Graph

Daily Weather History Graph

Search for Another Location

Airport or City:

Astronomy

Apr. 07, 2014 Rise Set
Actual Time 5:35 AM EET 6:07 PM EET
Civil Twilight 5:12 AM EET 6:30 PM EET
Nautical Twilight 4:45 AM EET 6:56 PM EET
Astronomical Twilight 4:18 AM EET 7:24 PM EET
Moon 11:30 AM EET (4/7) 12:12 AM EET (4/7)
Length of Visible Light 13h 17m
Length of Day
12h 31m
Waxing Crescent, 51% of the Moon is Illuminated
Apr 7
Waxing Crescent
Apr 15
Full
Apr 22
Last Quarter
Apr 29
New
May 7
First Quarter

Hourly Weather History & Observations

Time (EET) Temp. Dew Point Humidity Pressure Visibility Wind Dir Wind Speed Gust Speed Precip Events Conditions
12:00 AM 77.0 °F 10.4 °F 8% 29.89 in - WNW 8.1 mph - N/A   Clear
1:00 AM 75.2 °F 8.6 °F 8% 29.89 in - North 5.8 mph - N/A   Clear
2:00 AM 75 °F 13 °F 4% 29.85 in 6 mi WNW 2.3 mph - -  
2:00 AM 75.2 °F 12.2 °F 9% 29.86 in - WNW 2.3 mph - N/A   Clear
3:00 AM 71.6 °F 12.2 °F 10% 29.86 in - NW 5.8 mph - N/A   Clear
4:00 AM 71.6 °F 12.2 °F 10% 29.86 in - North 5.8 mph - N/A   Clear
5:00 AM 71 °F 33 °F 14% 29.88 in 6 mi North 4.6 mph - -  
5:00 AM 69.8 °F 10.4 °F 10% 29.89 in - North 4.6 mph - N/A   Clear
6:00 AM 69.8 °F 12.2 °F 11% 29.89 in - North 5.8 mph - N/A   Clear
7:00 AM 71.6 °F 17.6 °F 13% 29.92 in - North 3.5 mph - N/A   Clear
8:00 AM 77 °F 15 °F 4% 29.91 in 6 mi North 5.8 mph - -   Clear
8:00 AM 77.0 °F 19.4 °F 12% 29.92 in - North 5.8 mph - N/A   Clear
9:00 AM 82.4 °F 23.0 °F 11% 29.95 in - North 6.9 mph - N/A   Clear
10:00 AM 87.8 °F 24.8 °F 10% 29.95 in - NNE 6.9 mph - N/A   Clear
11:00 AM 94 °F 21 °F 4% 29.89 in 6 mi North 8.1 mph - -   Clear
11:00 AM 95.0 °F 42.8 °F 16% 29.95 in - North 8.1 mph - N/A   Clear
12:00 PM 96.8 °F 21.2 °F 7% 29.89 in - North 9.2 mph - N/A   Clear
1:00 PM 96.8 °F 23.0 °F 7% 29.86 in - North 8.1 mph - N/A   Clear
2:00 PM 99 °F 20 °F 4% 29.81 in 6 mi NW 4.6 mph - -  
2:00 PM 98.6 °F 19.4 °F 6% 29.86 in - NW 4.6 mph - N/A   Clear
3:00 PM 98.6 °F 15.8 °F 5% 29.83 in - NW 8.1 mph - N/A   Clear
4:00 PM 96.8 °F 14.0 °F 5% 29.83 in - NW 9.2 mph - N/A   Clear
5:00 PM 95 °F 14 °F 4% 29.81 in 6 mi NNW 8.1 mph - -  
5:00 PM 95.0 °F 14.0 °F 5% 29.83 in - NNW 8.1 mph - N/A   Clear
6:00 PM 93.2 °F 12.2 °F 5% 29.86 in - NNW 8.1 mph - N/A   Clear
7:00 PM 89.6 °F 10.4 °F 5% 29.86 in - NNW 4.6 mph - N/A   Clear
8:00 PM 70 °F 13 °F 4% 29.86 in 6 mi NNW 4.6 mph - -  
8:00 PM 87.8 °F 12.2 °F 6% 29.89 in - NNW 4.6 mph - N/A   Clear
9:00 PM 84.2 °F 14.0 °F 7% 29.92 in - North 4.6 mph - N/A   Clear
10:00 PM 82.4 °F 12.2 °F 7% 29.92 in - NNW 8.1 mph - N/A   Clear
11:00 PM 80 °F 16 °F 4% 29.90 in 6 mi North 6.9 mph - -  
11:00 PM 78.8 °F 15.8 °F 9% 29.92 in - North 6.9 mph - N/A   Clear